Location: Alto Pass Reservoir
(37.5801°N, 89.3084°W)
Time: 12:00:49
(UTC+00:00)

NEOSSAT - Pass Details

Date: 28 September 2022
Orbit: 767 x 784 km, 98.4° (Epoch: 26 November)

Event Time Altitude Azimuth Distance (km) Brightness Sun altitude
Rises 11:17:52 0° 145° (SE) 3,229 ? -7.2°
Reaches altitude 10° 11:20:17 10° 137° (SE) 2,308 ? -6.8°
Maximum altitude 11:24:57 38° 70° (ENE) 1,169 ? -5.8°
Drops below altitude 10° 11:29:40 10° 4° (N) 2,332 ? -4.9°
Sets 11:32:07 0° 356° (N) 3,266 ? -4.4°
